Regional Weather Roundup
Issued by NWS Charleston, SC

Current Version | Previous Version | Graphics & Text | Print | Product List | Glossary On
Versions: 1 2 3 4 5 6 7 8 9 10 11 12 13 14 15 16 17 18 19 20 21 22 23 24 25 26 27 28 29 30 31 32 33 34 35 36 37 38 39 40 41 42 43 44 45 46 47 48 49 50
000
ASUS42 KCHS 271628
RWRCHS

REGIONAL WEATHER ROUNDUP
NATIONAL WEATHER SERVICE CHARLESTON SC
1200 PM EDT SAT AUG 27 2016

NOTE: "FAIR" INDICATES FEW OR NO CLOUDS BELOW 12,000 FEET WITH NO
SIGNIFICANT WEATHER AND/OR OBSTRUCTIONS TO VISIBILITY.

NOT ALL STATIONS ARE QUALITY CONTROLLED. USE DATA WITH CAUTION...
ESPECIALLY DEWPOINT OBSERVATIONS.

SCZ027-030-031-034>040-042>050-271700-
...SOUTHEAST SOUTH CAROLINA...

CITY           SKY/WX    TMP DP  RH WIND       PRES   REMARKS
N CHARLESTON   MOSUNNY   90  68  48 SE17G25   30.09S HX  94
WATERFRONT PRK   N/A     85  74  69 E10       30.08S HX  93
MOUNT PLEASANT FAIR      88  72  58 NE7       30.09F HX  94
JOHNS ISLAND   FAIR      86  73  66 E12G22    30.09F HX  93
PINOPOLIS        N/A     84  73  70 E5        30.03F HX  91
MONCKS CORNER  FAIR      86  70  58 E8        30.09F HX  90
SUMMERVILLE    FAIR      90  70  51 E8G16     30.10S HX  95
BEAUFORT MCAS  MOSUNNY   88  71  57 E13       30.08F HX  94
BEAUFORT ARPT  FAIR      86  70  58 E16       30.08F HX  90
HILTON HEAD IS MOSUNNY   90  73  58 E14       30.09S HX  98
WALTERBORO     SUNNY     90  68  48 NE12      30.10S HX  93
ALLENDALE      FAIR      90  68  48 SE10      30.08F HX  93

...SOUTHERN MIDLANDS AND PEE DEE...

CITY           SKY/WX    TMP DP  RH WIND       PRES   REMARKS
GEORGETOWN     FAIR      86  70  58 E12       30.11S HX  90
KINGSTREE      FAIR      90  70  51 NE10G16   30.10S HX  95
ORANGEBURG     SUNNY     90  70  51 SE10      30.10F HX  95
BARNWELL       NOT AVBL
AIKEN          PTSUNNY   90  70  51 NE7       30.14F HX  95
MANNING        FAIR      88  72  58 E5        30.10S HX  94
COLUMBIA       PTSUNNY   91  72  53 E12G17    30.10F HX  98
SUMTER         MOSUNNY   89  73  58 E6        30.09F HX  97
FLORENCE       SUNNY     90  72  55 E6        30.11F HX  97
MYRTLE BEACH   SUNNY     90  70  51 E10       30.13S HX  95
N MYRTLE BEACH SUNNY     88  71  57 E9        30.11S HX  94

$$

GAZ063-065-086>088-099>101-113>116-118-119-134>141-150-271700-
...SOUTHEAST GEORGIA...

CITY           SKY/WX    TMP DP  RH WIND       PRES   REMARKS
SAVANNAH ARPT  MOSUNNY   90  68  48 E9        30.08S HX  94
HUNTER AAF     MOSUNNY   87  75  67 E13G20    30.05S HX  95
FORT STEWART   PTSUNNY   88  70  55 E14G20    30.05R HX  92
STATESBORO     SUNNY     89  69  53 NE3       30.09S HX  93
SYLVANIA       NOT AVBL
CLAXTON        FAIR      88  68  50 NE9       30.08S HX  92

...CSRA...CENTRAL AND FAR SOUTHEAST GEORGIA...

CITY           SKY/WX    TMP DP  RH WIND       PRES   REMARKS
THOMSON        MOSUNNY   91  74  58 MISG      30.15F HX 100
AUGUSTA-BUSH   MOSUNNY   92  71  50 E13       30.08F HX  98
AUGUSTA-DANIEL MOSUNNY   90  71  53 E8G16     30.11F HX  96
SWAINSBORO     FAIR      91  64  40 NE13G18   30.08F HX  93
VIDALIA        SUNNY     90  72  55 E9        30.08F HX  96
EASTMAN        FAIR      91  51  25 SE7       30.10S
HAZLEHURST     FAIR      90  73  58 CALM      30.06F HX  97
ALMA           CLOUDY    85  72  65 NE7       30.06F HX  91
WAYCROSS         N/A     90  78  66 SE10      30.05F HX 104
JESUP          FAIR      90  77  66 SE9       30.06F HX 102
BAXLEY         PTSUNNY   88  77  70 E9        30.06F HX 100
BRUNSWICK      MOSUNNY   88  77  70 E16       30.06S HX 100
SAINT SIMONS   NOT AVBL

$$

SCZ027-028-034-036>038-045-046-048>050-GAZ119-141-271700-
...LAKE AND SUPPLEMENTAL COASTAL OBSERVATIONS...

STATION/POSITION TIME  TEMP    WIND        PRES    WAVE   SWELL
                       AIR SEA DIR/SP/G            HT/PER HT/PER/DIR
                 (UTC) (F)     (DEG/KT/KT) (MB)    (FT/S) (FT/S/D)
WINYAH BAY       1500   82      70/  9     1019.0S
LAKE MURRAY      1500   84     220/  2/  3 1019.3S
ACE BASIN NERRS  1500   86      50/  5     1019.0S
FORT PULASKI     1600   83 86   50/ 14/ 20 1018.8F
SAPELO ISLAND    1600   87      70/ 14     1018.0S

$$

ANZ835-935-AMZ111-154-330-350-352-354-370-450-454-472-271700-
...C-MAN AND BUOY OBSERVATIONS...

STATION/POSITION TIME  TEMP    WIND        PRES    WAVE   SWELL
                       AIR SEA DIR/SP/G            HT/PER HT/PER/DIR
                 (UTC) (F)     (DEG/KT/KT) (MB)    (FT/S) (FT/S/D)
BUOY 41004       1550   83 84   70/ 12/ 14 1018.5R   5/10   3/150/10
BUOY 41008       1550   83 85   70/ 16/ 19 1017.5R   5/10   3/120/10
FOLLY BEACH CMAN 1600   83      80/ 14/ 16 1019.3F
CAPERS NEARSHORE 1508   82 84   70/ 14/ 17 1019.2R
FRIPP NEARSHORE  1608   83 86   80/ 16/ 23 1018.1F


STATION/POSITION TIME  TEMP    WIND        PRES    WAVE   SWELL
                       AIR SEA DIR/SP/G            HT/PER HT/PER/DIR
                 (UTC) (F)     (DEG/KT/KT) (MB)    (FT/S) (FT/S/D)
5E ST. MARYS GA  1501      85                N/A     5/11   2/130/11
FRYING PAN BUOY  1600   83 85   70/ 12/ 14 1019.0S
BUOY 41025       1550   82 85   20/  6/  8 1019.7S   3/10   3/120/10
CAPE LOOKOUT NC  1600   84      70/  5/  6 1019.2F
BUOY 41002       1550   81 84   60/ 16/ 17 1017.8F   4/ 9   3/120/ 9
BUOY 41010       NOT AVBL
ST AUGUSTINE FL  1600   82 84   50/ 14/ 15 1017.2F


$$



USA.gov is the U.S. government's official web portal to all federal, state and local government web resources and services.